Location: Tel Aviv
(32.0670°N, 34.7670°E)
Time: 08:50:36
(UTC+02:00)

Transit 2A Rocket - Pass Details

Date: 09 December 2023
Orbit: 590 x 905 km, 66.7° (Epoch: 01 March)

Event Time Altitude Azimuth Distance (km) Brightness Sun altitude
Exits shadow 04:37:42 17° 5° (N) 1,589 6.6 -23.1°
Maximum altitude 04:40:32 33° 60° (ENE) 1,088 6.2 -22.5°
Drops below altitude 10° 04:44:47 10° 124° (SE) 2,104 8.3 -21.6°
Sets 04:47:23 0° 134° (SE) 3,070 9.1 -21.1°
